Time,TemperatureF,DewpointF,PressureIn,WindDirection,WindDirectionDegrees,WindSpeedMPH,WindSpeedGustMPH,Humidity,HourlyPrecipIn,Conditions,Clouds,dailyrainin,SoftwareType,DateUTC
2013-06-09 00:02:00,67.0,59.0,29.90,SE,137,0.0,1.0,75,0.00,,,0.00,,2013-06-09 05:02:00,
2013-06-09 00:12:00,67.0,59.0,29.90,SE,137,0.0,1.0,75,0.00,,,0.00,,2013-06-09 05:12:00,
2013-06-09 00:22:00,67.0,59.0,29.89,SSE,155,0.0,1.0,75,0.00,,,0.00,,2013-06-09 05:22:00,
2013-06-09 00:32:00,66.0,58.0,29.89,SSE,148,0.0,1.0,76,0.00,,,0.00,,2013-06-09 05:32:00,
2013-06-09 00:42:00,66.0,58.0,29.89,SSE,148,0.0,1.0,76,0.00,,,0.00,,2013-06-09 05:42:00,
2013-06-09 00:52:00,65.0,58.0,29.89,SSE,148,0.0,1.0,78,0.00,,,0.00,,2013-06-09 05:52:00,
2013-06-09 01:02:00,64.0,58.0,29.89,ESE,113,0.0,1.0,80,0.00,,,0.00,,2013-06-09 06:02:00,
2013-06-09 01:12:00,64.0,58.0,29.89,ESE,113,0.0,1.0,80,0.00,,,0.00,,2013-06-09 06:12:00,
2013-06-09 01:22:00,63.0,57.0,29.90,ESE,113,0.0,0.0,82,0.00,,,0.00,,2013-06-09 06:22:00,
2013-06-09 01:32:00,63.0,58.0,29.90,ESE,113,0.0,0.0,85,0.00,,,0.00,,2013-06-09 06:32:00,
2013-06-09 01:42:00,63.0,58.0,29.90,ESE,113,0.0,0.0,85,0.00,,,0.00,,2013-06-09 06:42:00,
2013-06-09 01:52:00,62.0,58.0,29.90,ESE,113,0.0,0.0,86,0.00,,,0.00,,2013-06-09 06:52:00,
2013-06-09 02:02:00,61.0,57.0,29.90,ESE,113,0.0,0.0,88,0.00,,,0.00,,2013-06-09 07:02:00,
2013-06-09 02:12:00,61.0,57.0,29.90,ESE,113,0.0,0.0,88,0.00,,,0.00,,2013-06-09 07:12:00,
2013-06-09 02:22:00,61.0,58.0,29.88,ESE,110,0.0,2.0,89,0.00,,,0.00,,2013-06-09 07:22:00,
2013-06-09 02:32:00,63.0,58.0,29.89,South,186,0.0,2.0,83,0.00,,,0.00,,2013-06-09 07:32:00,
2013-06-09 02:42:00,63.0,58.0,29.89,South,186,0.0,2.0,83,0.00,,,0.00,,2013-06-09 07:42:00,
2013-06-09 02:52:00,63.0,57.0,29.89,South,186,0.0,0.0,82,0.00,,,0.00,,2013-06-09 07:52:00,
2013-06-09 03:02:00,63.0,58.0,29.89,SE,141,0.0,2.0,83,0.00,,,0.00,,2013-06-09 08:02:00,
2013-06-09 03:12:00,63.0,58.0,29.89,SE,141,0.0,2.0,83,0.00,,,0.00,,2013-06-09 08:12:00,
2013-06-09 03:22:00,63.0,57.0,29.89,SE,134,0.0,1.0,82,0.00,,,0.00,,2013-06-09 08:22:00,
2013-06-09 03:32:00,64.0,58.0,29.89,SSE,153,0.0,2.0,81,0.00,,,0.00,,2013-06-09 08:32:00,
2013-06-09 03:42:00,64.0,58.0,29.89,SSE,153,0.0,2.0,81,0.00,,,0.00,,2013-06-09 08:42:00,
2013-06-09 03:53:00,64.0,58.0,29.89,South,169,0.0,0.0,81,0.00,,,0.00,,2013-06-09 08:53:00,
2013-06-09 04:02:00,63.0,57.0,29.88,SSE,162,0.0,0.0,82,0.00,,,0.00,,2013-06-09 09:02:00,
2013-06-09 04:12:00,63.0,57.0,29.88,SSE,162,0.0,0.0,82,0.00,,,0.00,,2013-06-09 09:12:00,
2013-06-09 04:22:00,64.0,58.0,29.88,South,172,1.0,3.0,81,0.00,,,0.00,,2013-06-09 09:22:00,
2013-06-09 04:33:00,65.0,59.0,29.88,SSE,162,0.0,2.0,80,0.00,,,0.00,,2013-06-09 09:33:00,
2013-06-09 04:43:00,65.0,59.0,29.88,SSE,162,0.0,2.0,80,0.00,,,0.00,,2013-06-09 09:43:00,
2013-06-09 04:52:00,64.0,58.0,29.87,SE,146,0.0,0.0,80,0.00,,,0.00,,2013-06-09 09:52:00,
2013-06-09 05:03:00,63.0,57.0,29.87,SE,141,0.0,1.0,82,0.00,,,0.00,,2013-06-09 10:03:00,
2013-06-09 05:12:00,63.0,57.0,29.87,SE,141,0.0,1.0,82,0.00,,,0.00,,2013-06-09 10:12:00,
2013-06-09 05:23:00,63.0,58.0,29.86,SE,135,0.0,1.0,84,0.00,,,0.00,,2013-06-09 10:23:00,
2013-06-09 05:32:00,62.0,58.0,29.85,SSE,150,0.0,1.0,87,0.00,,,0.00,,2013-06-09 10:32:00,
2013-06-09 05:43:00,62.0,58.0,29.85,SSE,150,0.0,1.0,87,0.00,,,0.00,,2013-06-09 10:43:00,
2013-06-09 05:52:00,62.0,58.0,29.85,SSE,168,0.0,2.0,87,0.00,,,0.00,,2013-06-09 10:52:00,
2013-06-09 06:02:00,64.0,60.0,29.85,SSE,160,0.0,4.0,86,0.00,,,0.00,,2013-06-09 11:02:00,
2013-06-09 06:12:00,64.0,60.0,29.85,SSE,160,0.0,4.0,86,0.00,,,0.00,,2013-06-09 11:12:00,
2013-06-09 06:22:00,64.0,59.0,29.85,SSE,155,0.0,2.0,85,0.00,,,0.00,,2013-06-09 11:22:00,
2013-06-09 06:32:00,63.0,59.0,29.85,SSE,155,0.0,1.0,87,0.00,,,0.00,,2013-06-09 11:32:00,
2013-06-09 06:42:00,63.0,59.0,29.85,SSE,155,0.0,1.0,87,0.00,,,0.00,,2013-06-09 11:42:00,
2013-06-09 06:52:00,63.0,59.0,29.86,SSE,153,0.0,1.0,88,0.00,,,0.00,,2013-06-09 11:52:00,
2013-06-09 07:02:00,63.0,59.0,29.86,SSE,153,0.0,1.0,88,0.00,,,0.00,,2013-06-09 12:02:00,
2013-06-09 07:12:00,63.0,59.0,29.86,SSE,153,0.0,1.0,88,0.00,,,0.00,,2013-06-09 12:12:00,
2013-06-09 07:22:00,64.0,60.0,29.86,SSE,155,0.0,0.0,88,0.00,,,0.00,,2013-06-09 12:22:00,
2013-06-09 07:32:00,65.0,61.0,29.86,ESE,113,0.0,1.0,87,0.00,,,0.00,,2013-06-09 12:32:00,
2013-06-09 07:42:00,65.0,61.0,29.86,ESE,113,0.0,1.0,87,0.00,,,0.00,,2013-06-09 12:42:00,
2013-06-09 07:52:00,67.0,62.0,29.86,ESE,111,0.0,1.0,85,0.00,,,0.00,,2013-06-09 12:52:00,
2013-06-09 08:02:00,69.0,63.0,29.86,ESE,116,0.0,1.0,81,0.00,,,0.00,,2013-06-09 13:02:00,
2013-06-09 08:12:00,69.0,63.0,29.86,ESE,116,0.0,1.0,81,0.00,,,0.00,,2013-06-09 13:12:00,
2013-06-09 08:22:00,71.0,64.0,29.86,SSE,163,0.0,3.0,79,0.00,,,0.00,,2013-06-09 13:22:00,
2013-06-09 08:32:00,71.0,63.0,29.86,SSE,156,0.0,1.0,77,0.00,,,0.00,,2013-06-09 13:32:00,
2013-06-09 08:42:00,71.0,63.0,29.86,SSE,156,0.0,1.0,77,0.00,,,0.00,,2013-06-09 13:42:00,
2013-06-09 08:52:00,72.0,65.0,29.86,SE,132,0.0,1.0,78,0.00,,,0.00,,2013-06-09 13:52:00,
2013-06-09 09:02:00,72.0,64.0,29.86,SE,146,0.0,2.0,76,0.00,,,0.00,,2013-06-09 14:02:00,
2013-06-09 09:12:00,72.0,64.0,29.86,SE,146,0.0,2.0,76,0.00,,,0.00,,2013-06-09 14:12:00,
2013-06-09 09:22:00,73.0,65.0,29.86,WSW,246,0.0,4.0,77,0.00,,,0.00,,2013-06-09 14:22:00,
2013-06-09 09:32:00,73.0,65.0,29.86,SE,124,1.0,5.0,77,0.00,,,0.00,,2013-06-09 14:32:00,
2013-06-09 09:42:00,73.0,65.0,29.86,SE,124,1.0,5.0,77,0.00,,,0.00,,2013-06-09 14:42:00,
2013-06-09 09:52:00,73.0,66.0,29.86,SSE,150,1.0,5.0,78,0.00,,,0.00,,2013-06-09 14:52:00,
2013-06-09 10:02:00,74.0,66.0,29.85,SSW,203,2.0,6.0,77,0.00,,,0.00,,2013-06-09 15:02:00,
2013-06-09 10:12:00,74.0,66.0,29.85,SSW,203,2.0,6.0,77,0.00,,,0.00,,2013-06-09 15:12:00,
2013-06-09 10:22:00,74.0,67.0,29.85,South,169,2.0,7.0,78,0.00,,,0.00,,2013-06-09 15:22:00,
2013-06-09 10:33:00,74.0,67.0,29.85,SSW,203,0.0,5.0,78,0.00,,,0.00,,2013-06-09 15:33:00,
2013-06-09 10:43:00,74.0,67.0,29.85,SSW,203,0.0,5.0,78,0.00,,,0.00,,2013-06-09 15:43:00,
2013-06-09 10:53:00,74.0,67.0,29.85,SSE,149,2.0,5.0,78,0.00,,,0.00,,2013-06-09 15:53:00,
2013-06-09 11:03:00,74.0,67.0,29.85,SE,124,0.0,3.0,80,0.00,,,0.00,,2013-06-09 16:03:00,
2013-06-09 11:13:00,74.0,67.0,29.85,SE,124,0.0,3.0,80,0.00,,,0.00,,2013-06-09 16:13:00,
2013-06-09 11:23:00,74.0,67.0,29.86,East,91,0.0,2.0,80,0.00,,,0.00,,2013-06-09 16:23:00,
2013-06-09 11:33:00,74.0,68.0,29.85,SSE,148,0.0,2.0,81,0.00,,,0.00,,2013-06-09 16:33:00,
2013-06-09 11:42:00,74.0,68.0,29.85,SSE,148,0.0,2.0,81,0.00,,,0.00,,2013-06-09 16:42:00,
2013-06-09 11:53:00,74.0,68.0,29.86,SSW,195,1.0,3.0,81,0.00,,,0.00,,2013-06-09 16:53:00,
2013-06-09 12:02:00,74.0,69.0,29.85,SSE,154,0.0,2.0,85,0.00,,,0.00,,2013-06-09 17:02:00,
2013-06-09 12:12:00,74.0,69.0,29.85,SSE,154,0.0,2.0,85,0.00,,,0.00,,2013-06-09 17:12:00,
2013-06-09 12:22:00,73.0,69.0,29.85,SE,145,1.0,6.0,86,0.01,,,0.01,,2013-06-09 17:22:00,
2013-06-09 12:32:00,72.0,68.0,29.85,WSW,246,2.0,5.0,87,0.05,,,0.05,,2013-06-09 17:32:00,
2013-06-09 12:42:00,72.0,68.0,29.85,WSW,246,2.0,5.0,87,0.05,,,0.05,,2013-06-09 17:42:00,
2013-06-09 12:52:00,72.0,68.0,29.84,SSW,207,3.0,7.0,88,0.05,,,0.05,,2013-06-09 17:52:00,
2013-06-09 13:02:00,72.0,69.0,29.83,SSW,196,1.0,4.0,89,0.06,,,0.06,,2013-06-09 18:02:00,
2013-06-09 13:12:00,72.0,69.0,29.83,SSW,196,1.0,4.0,89,0.06,,,0.06,,2013-06-09 18:12:00,
2013-06-09 13:21:00,72.0,69.0,29.82,West,262,2.0,3.0,90,0.06,,,0.07,,2013-06-09 18:21:00,
2013-06-09 13:32:00,72.0,69.0,29.81,SW,235,3.0,7.0,89,0.02,,,0.07,,2013-06-09 18:32:00,
2013-06-09 13:42:00,72.0,69.0,29.81,SW,235,3.0,7.0,89,0.02,,,0.07,,2013-06-09 18:42:00,
2013-06-09 13:52:00,72.0,69.0,29.80,WSW,243,3.0,8.0,89,0.02,,,0.07,,2013-06-09 18:52:00,
2013-06-09 14:02:00,72.0,68.0,29.80,West,271,4.0,11.0,88,0.01,,,0.07,,2013-06-09 19:02:00,
2013-06-09 14:12:00,72.0,68.0,29.80,West,271,4.0,11.0,88,0.01,,,0.07,,2013-06-09 19:12:00,
2013-06-09 14:22:00,73.0,69.0,29.80,SW,226,2.0,10.0,88,0.00,,,0.07,,2013-06-09 19:22:00,
2013-06-09 14:32:00,74.0,69.0,29.80,WSW,255,2.0,8.0,85,0.00,,,0.07,,2013-06-09 19:32:00,
2013-06-09 14:42:00,74.0,69.0,29.80,WSW,255,2.0,8.0,85,0.00,,,0.07,,2013-06-09 19:42:00,
2013-06-09 14:52:00,76.0,70.0,29.79,West,264,2.0,6.0,82,0.00,,,0.07,,2013-06-09 19:52:00,
2013-06-09 15:02:00,77.0,69.0,29.79,WNW,290,4.0,8.0,76,0.00,,,0.07,,2013-06-09 20:02:00,
2013-06-09 15:12:00,77.0,69.0,29.79,WNW,290,4.0,8.0,76,0.00,,,0.07,,2013-06-09 20:12:00,
2013-06-09 15:22:00,79.0,69.0,29.79,WNW,293,4.0,7.0,72,0.00,,,0.07,,2013-06-09 20:22:00,
2013-06-09 15:32:00,79.0,70.0,29.80,West,278,2.0,7.0,73,0.00,,,0.07,,2013-06-09 20:32:00,
2013-06-09 15:42:00,79.0,70.0,29.80,West,278,2.0,7.0,73,0.00,,,0.07,,2013-06-09 20:42:00,
2013-06-09 15:52:00,75.0,65.0,29.80,SW,236,2.0,8.0,70,0.01,,,0.08,,2013-06-09 20:52:00,
2013-06-09 16:02:00,71.0,63.0,29.80,WSW,249,1.0,5.0,77,0.02,,,0.09,,2013-06-09 21:02:00,
2013-06-09 16:12:00,70.0,65.0,29.80,West,267,0.0,2.0,84,0.02,,,0.09,,2013-06-09 21:12:00,
2013-06-09 16:22:00,70.0,65.0,29.80,West,267,0.0,2.0,84,0.02,,,0.09,,2013-06-09 21:22:00,
2013-06-09 16:33:00,72.0,67.0,29.79,WNW,285,0.0,3.0,83,0.02,,,0.09,,2013-06-09 21:33:00,
2013-06-09 16:43:00,72.0,67.0,29.79,WNW,285,0.0,3.0,83,0.02,,,0.09,,2013-06-09 21:43:00,
2013-06-09 16:53:00,75.0,68.0,29.79,WSW,250,2.0,4.0,79,0.01,,,0.09,,2013-06-09 21:53:00,
2013-06-09 17:02:00,76.0,68.0,29.79,South,186,3.0,5.0,76,0.00,,,0.09,,2013-06-09 22:02:00,
2013-06-09 17:13:00,77.0,68.0,29.78,SE,125,0.0,4.0,75,0.00,,,0.09,,2013-06-09 22:13:00,
2013-06-09 17:23:00,77.0,68.0,29.78,SE,125,0.0,4.0,75,0.00,,,0.09,,2013-06-09 22:23:00,
2013-06-09 17:33:00,79.0,70.0,29.78,SW,227,1.0,5.0,73,0.00,,,0.09,,2013-06-09 22:33:00,
2013-06-09 17:42:00,79.0,70.0,29.78,SW,227,1.0,5.0,73,0.00,,,0.09,,2013-06-09 22:42:00,
2013-06-09 17:52:00,81.0,69.0,29.78,WNW,297,2.0,5.0,66,0.00,,,0.09,,2013-06-09 22:52:00,
2013-06-09 18:02:00,81.0,69.0,29.78,WSW,257,1.0,7.0,66,0.00,,,0.09,,2013-06-09 23:02:00,
2013-06-09 18:12:00,80.0,68.0,29.79,WNW,294,2.0,6.0,66,0.00,,,0.09,,2013-06-09 23:12:00,
2013-06-09 18:22:00,80.0,68.0,29.79,WNW,294,2.0,6.0,66,0.00,,,0.09,,2013-06-09 23:22:00,
2013-06-09 18:32:00,81.0,67.0,29.79,WNW,300,2.0,8.0,63,0.00,,,0.09,,2013-06-09 23:32:00,
2013-06-09 18:42:00,81.0,67.0,29.79,WNW,300,2.0,8.0,63,0.00,,,0.09,,2013-06-09 23:42:00,
2013-06-09 18:52:00,81.0,66.0,29.79,East,81,1.0,9.0,61,0.00,,,0.09,,2013-06-09 23:52:00,
2013-06-09 19:02:00,81.0,65.0,29.80,WNW,291,0.0,6.0,59,0.00,,,0.09,,2013-06-10 00:02:00,
2013-06-09 19:12:00,81.0,65.0,29.80,WNW,291,0.0,6.0,59,0.00,,,0.09,,2013-06-10 00:12:00,
2013-06-09 19:22:00,81.0,64.0,29.80,WNW,302,2.0,4.0,56,0.00,,,0.09,,2013-06-10 00:22:00,
2013-06-09 19:32:00,81.0,63.0,29.80,NNW,338,0.0,4.0,55,0.00,,,0.09,,2013-06-10 00:32:00,
2013-06-09 19:42:00,81.0,63.0,29.80,NNW,338,0.0,4.0,55,0.00,,,0.09,,2013-06-10 00:42:00,
2013-06-09 19:52:00,81.0,62.0,29.80,WNW,294,0.0,5.0,53,0.00,,,0.09,,2013-06-10 00:52:00,
2013-06-09 20:02:00,81.0,63.0,29.80,WNW,294,0.0,1.0,54,0.00,,,0.09,,2013-06-10 01:02:00,
2013-06-09 20:12:00,81.0,63.0,29.80,WNW,294,0.0,1.0,54,0.00,,,0.09,,2013-06-10 01:12:00,
2013-06-09 20:22:00,80.0,63.0,29.80,WNW,294,0.0,0.0,56,0.00,,,0.09,,2013-06-10 01:22:00,
2013-06-09 20:32:00,76.0,66.0,29.80,SSW,197,0.0,1.0,71,0.00,,,0.09,,2013-06-10 01:32:00,
2013-06-09 20:42:00,76.0,66.0,29.80,SSW,197,0.0,1.0,71,0.00,,,0.09,,2013-06-10 01:42:00,
2013-06-09 20:52:00,73.0,67.0,29.80,SE,141,0.0,1.0,82,0.00,,,0.09,,2013-06-10 01:52:00,
2013-06-09 21:02:00,71.0,67.0,29.80,SSE,148,0.0,1.0,87,0.00,,,0.09,,2013-06-10 02:02:00,
2013-06-09 21:12:00,71.0,67.0,29.80,SSE,148,0.0,1.0,87,0.00,,,0.09,,2013-06-10 02:12:00,
2013-06-09 21:22:00,71.0,68.0,29.80,SSE,152,0.0,1.0,90,0.00,,,0.09,,2013-06-10 02:22:00,
2013-06-09 21:32:00,69.0,67.0,29.80,SSE,162,0.0,1.0,92,0.00,,,0.09,,2013-06-10 02:32:00,
2013-06-09 21:42:00,69.0,67.0,29.80,SSE,162,0.0,1.0,92,0.00,,,0.09,,2013-06-10 02:42:00,
2013-06-09 21:52:00,69.0,67.0,29.81,SSE,162,0.0,1.0,93,0.00,,,0.09,,2013-06-10 02:52:00,
2013-06-09 22:02:00,68.0,66.0,29.82,SSE,162,0.0,1.0,93,0.00,,,0.09,,2013-06-10 03:02:00,
2013-06-09 22:12:00,68.0,66.0,29.82,SSE,162,0.0,1.0,93,0.00,,,0.09,,2013-06-10 03:12:00,
2013-06-09 22:22:00,68.0,66.0,29.83,WSW,239,0.0,1.0,94,0.00,,,0.09,,2013-06-10 03:22:00,
2013-06-09 22:33:00,68.0,66.0,29.82,South,181,0.0,1.0,94,0.00,,,0.09,,2013-06-10 03:33:00,
2013-06-09 22:43:00,68.0,66.0,29.82,South,181,0.0,1.0,94,0.00,,,0.09,,2013-06-10 03:43:00,
2013-06-09 22:53:00,67.0,65.0,29.83,South,181,0.0,0.0,94,0.00,,,0.09,,2013-06-10 03:53:00,
2013-06-09 23:03:00,67.0,66.0,29.84,SW,221,0.0,1.0,95,0.00,,,0.09,,2013-06-10 04:03:00,
2013-06-09 23:12:00,67.0,66.0,29.84,SW,221,0.0,1.0,95,0.00,,,0.09,,2013-06-10 04:12:00,
2013-06-09 23:23:00,67.0,66.0,29.84,SW,221,0.0,1.0,95,0.00,,,0.09,,2013-06-10 04:23:00,
2013-06-09 23:33:00,66.0,65.0,29.84,SW,228,0.0,0.0,96,0.00,,,0.09,,2013-06-10 04:33:00,
2013-06-09 23:42:00,66.0,65.0,29.84,SW,228,0.0,0.0,96,0.00,,,0.09,,2013-06-10 04:42:00,
2013-06-09 23:53:00,66.0,65.0,29.84,SW,228,0.0,0.0,96,0.00,,,0.09,,2013-06-10 04:53:00,